Location: ????
(33.1659°N, 35.6604°E)
Time: 15:49:11
(UTC+00:00)

Cosmos 1544 Rocket - Pass Details

Date: 20 September 2019
Orbit: 604 x 632 km, 82.5° (Epoch: 13 October)

Event Time Altitude Azimuth Distance (km) Brightness Sun altitude
Exits shadow 17:34:20 51° 14° (NNE) 796 4.0 -24.8°
Drops below altitude 10° 17:37:43 10° 8° (N) 2,015 6.3 -25.5°
Sets 17:39:57 0° 8° (N) 2,925 7.2 -25.9°
